Regional Weather Roundup
Issued by NWS Albany, NY

Home | Current Version | Previous Version | Text Only | Print | Product List | Glossary On
Versions: 1 2 3 4 5 6 7 8 9 10 11 12 13 14 15 16 17 18 19 20 21 22 23 24 25 26 27 28 29 30 31 32 33 34 35 36 37 38 39 40 41 42 43 44 45 46 47 48 49 50
754
ASUS41 KALY 181910
RWRALY

NEW YORK STATE HOURLY WEATHER ROUNDUP
NATIONAL WEATHER SERVICE ALBANY NY
300 PM EDT FRI AUG 18 2017

NOTE: "FAIR" INDICATES FEW OR NO CLOUDS BELOW 12,000 FEET WITH NO
SIGNIFICANT WEATHER AND/OR NO OBSTRUCTIONS TO VISIBILITY.

NYZ032-033-038>043-046>054-057>066-NYZ062>081-082-084-182000-
EAST


CITY           SKY/WX    TMP DP  RH WIND       PRES   REMARKS
ALBANY         LGT RAIN  74  72  93 CALM      29.79F FOG
GLENS FALLS    CLOUDY    74  72  93 S9        29.78F FOG
POUGHKEEPSIE   CLOUDY    80  73  79 SE8       29.79F
NEWBURGH       CLOUDY    81  75  83 W6        29.83F
MONTGOMERY     CLOUDY    82  74  76 VRB3      29.80F
WHITE PLAINS   LGT RAIN  79  75  87 S9        29.83F
ISLIP          CLOUDY    81  76  84 SW15G25   29.83F
NEW YORK CITY  LGT RAIN  82  77  84 S8        29.80F HX  90
CENTRAL PARK   CLOUDY    80  76  87 CALM      29.85F
$$

NYZ005>009-017-018-044>046-055-056-182000-
CENTRAL


CITY           SKY/WX    TMP DP  RH WIND       PRES   REMARKS
FULTON         MOSUNNY   87  69  54 S10       29.71F HX  91
SYRACUSE       PTSUNNY   85  67  54 SW9       29.71F
ROME           CLOUDY    86  67  52 S12       29.74F
ELMIRA         PTSUNNY   84  71  65 S12       29.75F
BINGHAMTON     PTSUNNY   74  71  91 SW7       29.82S
MONTICELLO     RAIN      74  71  91 NW14G40   29.85F SQUALL  FOG
$$

NYZ026>034-041>043-087-182000-
NORTH


CITY           SKY/WX    TMP DP  RH WIND       PRES   REMARKS
WATERTOWN      SUNNY     84  67  56 SW12G21   29.71F
FORT DRUM      NOT AVBL
OGDENSBURG     FAIR      86  70  59 SW13G21   29.68F HX  90
MASSENA        SUNNY     85  71  63 SW12G20   29.69S HX  90
SARANAC LAKE   MOSUNNY   79  65  62 W8        29.76F
PLATTSBURGH    MOSUNNY   78  70  76 SE15      29.72S
$$

NYZ001>004-010>016-019>021-085-182000-
WEST


CITY           SKY/WX    TMP DP  RH WIND       PRES   REMARKS
NIAGARA FALLS  MOSUNNY   83  65  54 SW18G31   29.72S
BUFFALO        MOSUNNY   79  63  57 SW25G33   29.74S
DUNKIRK        LGT RAIN  78  66  66 W22G29    29.77S
JAMESTOWN      PTSUNNY   81  63  54 W18       29.81S
WELLSVILLE     SUNNY     84  63  49 SW9G21    29.82F
ROCHESTER      MOSUNNY   85  66  53 W10       29.71F
PENN YAN       MOSUNNY   86  66  51 VRB3      29.74F
$$

             KEY
       WCI = WIND CHILL INDEX
       VSB = VISIBILITY
       HX  = HEAT INDEX
$$




USA.gov is the U.S. government's official web portal to all federal, state and local government web resources and services.